CAPE
17 20 23 25 6 2 6 12 32 36 23 7 5 5 8 6 7 12 15 16 0 0 35 0 0 0 0 2 5 1 0 2 73 124 148 130 135 152
7 16 3 1 0 0 2 5 7 16 33 2 0 0 0 0 2 12 5 15 0 0 3 8 0 0 0 0 0 7 0 0 0 85 111 118 165 83
0 0 0 0 0 3 3 3 4 7 11 0 3 2 2 10 10 7 2 20 23 0 2 0 1 0 0 0 0 1 0 0 0 0 100 137 91 53
0 0 0 0 1 6 10 12 15 16 20 11 2 8 23 24 27 33 15 42 42 12 0 0 0 3 0 0 0 0 0 0 0 0 0 0 21 39
0 0 1 5 5 6 11 16 20 15 20 21 15 19 20 19 48 41 43 39 44 2 0 0 0 1 14 0 0 0 0 0 0 0 0 0 0 1
0 1 2 2 3 6 12 12 11 20 17 29 25 19 21 26 32 54 50 50 48 22 0 0 0 1 22 12 2 0 0 0 0 0 0 0 0 0
0 0 0 0 2 6 13 12 13 18 26 37 38 20 18 20 20 32 39 42 68 36 9 6 7 30 36 2 18 0 0 7 3 0 0 0 0 0
0 0 0 0 1 5 5 8 14 35 60 38 28 68 60 38 36 26 60 25 51 29 14 15 0 17 24 0 0 0 0 5 4 1 7 0 0 0
0 0 0 1 5 8 7 9 18 13 16 35 49 41 30 28 28 66 44 44 28 36 21 18 21 15 10 1 0 0 2 6 1 0 0 0 0 0
0 2 4 6 8 12 37 29 19 14 21 29 50 50 35 27 30 47 56 36 30 31 26 35 23 21 13 3 0 0 0 8 8 5 3 0 0 0
2 4 6 7 7 27 24 25 15 11 8 7 13 26 27 27 29 35 39 52 37 26 25 14 17 38 33 15 0 0 1 1 3 1 0 0 0 0
5 1 1 8 11 9 16 25 20 23 18 19 18 21 16 19 3 21 19 47 45 68 34 46 31 30 23 4 0 0 0 0 1 0 0 0 0 1
4 0 4 6 5 6 7 20 21 13 15 17 18 18 15 14 25 31 20 20 31 37 21 27 25 27 24 22 17 4 0 0 1 0 0 0 0 1
8 3 6 2 1 1 5 5 0 4 14 14 16 19 16 14 15 16 36 34 24 8 12 9 20 20 17 21 18 17 16 8 7 10 5 0 0 0
6 0 0 0 0 0 0 0 0 3 10 13 11 9 10 11 14 24 17 15 25 13 6 8 13 12 17 22 20 15 20 25 17 30 12 2 17 14
0 0 0 0 0 0 1 1 2 1 5 11 9 9 8 10 16 18 22 26 25 20 15 15 13 20 23 24 13 11 15 39 18 27 9 6 19 43
0 0 0 0 0 0 1 0 0 0 1 6 7 6 7 7 9 9 12 18 21 19 19 16 22 20 20 15 21 15 21 16 30 37 4 24 44 71
0 0 0 1 1 0 1 1 0 0 0 5 7 6 5 8 10 12 10 10 12 12 13 12 22 16 19 24 25 61 29 17 12 21 18 16 23 46
0 0 2 1 0 0 0 0 0 0 0 2 5 5 6 6 12 12 13 13 10 7 7 10 13 29 51 68 8 0 41 22 18 14 13 8 3 11
0 0 1 2 1 0 0 0 0 0 0 0 3 4 6 7 10 8 13 10 10 6 4 4 9 8 9 15 30 7 0 15 9 8 3 11 8 0
3 1 2 1 2 1 2 2 3 1 0 0 0 2 4 4 5 6 8 2 0 3 2 4 7 0 5 5 12 11 6 0 1 9 12 20 19 13
6 3 1 1 3 2 3 3 2 3 1 0 0 2 4 4 3 6 6 11 8 5 1 3 3 5 7 11 9 6 9 8 0 0 0 1 13 10
4 4 4 4 3 3 1 2 1 3 1 0 0 0 4 4 1 4 5 6 5 1 1 3 2 1 5 3 3 12 6 6 10 14 10 0 0 0
CIN
-3 -5 -2 -0 -10 -12 -9 -3 -0 -0 -0 -0 -0 -0 -0 -0 -0 -0 -0 -0 -0 -0 -20 -0 -0 -0 -0 -0 -6 -8 -0 -5 -12 -4 -4 -5 -0 -0
-11 -8 -9 -7 -0 -8 -4 -2 -0 -0 -0 -0 -0 -0 -0 -0 -0 -0 -0 -0 -0 -0 -17 -28 -0 -0 -0 -0 -0 -9 -0 -0 -0 -14 -8 -5 -2 -3
-11 -0 -0 -0 -0 -0 -0 -0 -0 -0 -0 -0 -0 -0 -0 -0 -0 -0 -0 -0 -0 -7 -7 -0 -2 -0 -0 -0 -0 -0 -0 -0 -0 -0 -11 -4 -7 -14
-0 -0 -0 -0 -0 -0 -0 -0 -0 -0 -0 -0 -0 -0 -0 -0 -0 -0 -0 -0 -0 -2 -0 -0 -0 -5 -0 -0 -0 -0 -0 -0 -0 -0 -0 -1 -17 -16
-0 -0 -0 -0 -0 -0 -0 -0 -0 -0 -0 -0 -0 -0 -0 -0 -0 -0 -0 -0 -0 -0 -0 -0 -0 -8 -3 -0 -0 -0 -0 -0 -0 -0 -0 -0 -10 -22
-0 -0 -0 -0 -0 -0 -0 -0 -0 -0 -0 -0 -0 -0 -0 -0 -0 -0 -0 -0 -0 -0 -0 -0 -0 -5 -1 -3 -4 -0 -0 -0 -0 -0 -0 -0 -0 -0
-0 -0 -0 -0 -0 -0 -0 -0 -0 -0 -0 -0 -0 -0 -0 -0 -0 -0 -0 -0 -0 -0 -0 -0 -0 -0 -0 -20 -0 -0 -0 -0 -22 -0 -0 -0 -0 -0
-0 -0 -0 -0 -0 -0 -0 -0 -0 -0 -0 -0 -0 -0 -0 -0 -0 -0 -0 -0 -0 -0 -0 -0 -0 -0 -0 -0 -0 -0 -0 -0 -0 -1 -5 -0 -0 -0
-0 -0 -0 -0 -0 -0 -0 -0 -0 -0 -0 -0 -0 -0 -0 -0 -0 -0 -0 -0 -0 -0 -0 -0 -0 -0 -0 -0 -0 -0 -0 -0 -1 -0 -1 -3 -0 -0
-0 -0 -0 -0 -0 -0 -0 -0 -0 -0 -0 -0 -0 -0 -0 -0 -0 -0 -0 -0 -0 -0 -0 -0 -0 -0 -0 -0 -0 -0 -0 -0 -0 -0 -2 -6 -0 -0
-0 -0 -0 -0 -0 -0 -0 -0 -0 -0 -0 -0 -0 -0 -0 -0 -0 -0 -0 -0 -0 -0 -0 -0 -0 -0 -0 -0 -0 -0 -0 -0 -0 -1 -0 -0 -0 -0
-0 -0 -0 -0 -0 -0 -0 -0 -0 -0 -0 -0 -0 -0 -0 -0 -0 -0 -0 -0 -0 -0 -0 -0 -0 -0 -0 -0 -0 -0 -0 -0 -0 -0 -0 -0 -0 -0
-0 -0 -0 -0 -0 -0 -0 -0 -0 -0 -0 -0 -0 -0 -0 -0 -0 -0 -0 -0 -0 -0 -0 -0 -0 -0 -0 -0 -0 -0 -0 -0 -1 -0 -0 -0 -0 -2
-0 -0 -0 -0 -0 -0 -0 -0 -0 -0 -0 -0 -0 -0 -0 -0 -0 -0 -0 -0 -0 -0 -0 -0 -0 -0 -0 -0 -0 -0 -0 -0 -0 -0 -0 -0 -0 -0
-0 -0 -0 -0 -0 -0 -0 -0 -0 -0 -0 -0 -0 -0 -0 -0 -0 -0 -0 -0 -0 -0 -0 -0 -0 -0 -0 -0 -0 -0 -0 -0 -0 -0 -0 -1 -0 -0
-0 -0 -0 -0 -0 -0 -0 -0 -0 -0 -0 -0 -0 -0 -0 -0 -0 -0 -0 -0 -0 -0 -0 -0 -0 -0 -0 -0 -0 -0 -0 -0 -0 -0 -1 -0 -0 -0
-0 -0 -0 -0 -0 -0 -0 -0 -0 -0 -0 -0 -0 -0 -0 -0 -0 -0 -0 -0 -0 -0 -0 -0 -0 -0 -0 -0 -0 -0 -0 -0 -0 -0 -0 -0 -0 -0
-0 -0 -0 -0 -0 -0 -0 -0 -0 -0 -0 -0 -0 -0 -0 -0 -0 -0 -0 -0 -0 -0 -0 -0 -0 -0 -0 -0 -0 -0 -0 -0 -0 -0 -0 -0 -0 -0
-0 -0 -0 -0 -0 -0 -0 -0 -0 -0 -0 -0 -0 -0 -0 -0 -0 -0 -0 -0 -0 -0 -0 -0 -0 -0 -0 -0 -0 -0 -0 -0 -0 -0 -0 -0 -0 -0
-0 -0 -0 -0 -0 -0 -0 -0 -0 -0 -0 -0 -0 -0 -0 -0 -0 -0 -0 -0 -0 -0 -0 -0 -0 -0 -0 -0 -0 -0 -0 -0 -0 -0 -0 -0 -0 -0
-0 -0 -0 -0 -0 -0 -0 -0 -0 -0 -0 -0 -0 -0 -0 -0 -0 -0 -0 -0 -0 -0 -0 -0 -0 -0 -0 -0 -0 -0 -0 -0 -0 -0 -0 -0 -0 -0
-0 -0 -0 -0 -0 -0 -0 -0 -0 -0 -0 -0 -0 -0 -0 -0 -0 -0 -0 -0 -0 -0 -0 -0 -0 -0 -0 -0 -0 -0 -0 -0 -0 -0 -0 -0 -0 -0
-0 -0 -0 -0 -0 -0 -0 -0 -0 -0 -0 -0 -0 -0 -0 -0 -0 -0 -0 -0 -0 -0 -0 -0 -0 -0 -0 -0 -0 -0 -0 -0 -0 -0 -0 -0 -0 -0
Wind_Speed
6 6 6 5 4 5 6 6 8 14 15 16 15 13 13 13 16 15 15 16 14 10 11 8 9 12 13 14 16 13 14 18 14 16 19 18 16 14
5 6 6 5 6 6 7 7 8 11 17 13 13 15 14 13 16 17 17 17 13 10 10 7 8 9 11 13 12 15 10 17 16 12 15 19 17 16
5 6 8 8 8 9 9 9 9 10 14 15 13 15 17 16 14 15 16 14 10 7 5 6 11 9 9 11 10 13 7 12 15 13 12 18 17 17
6 7 10 8 12 11 9 12 11 12 12 20 15 13 15 15 15 15 13 12 11 7 7 10 11 9 8 8 9 8 10 9 11 7 8 13 13 16
8 10 11 12 13 11 12 12 11 10 11 13 15 13 12 12 14 12 12 13 10 12 11 9 8 10 9 7 7 8 11 9 6 12 4 7 10 13
9 10 11 12 13 14 12 13 11 11 12 11 13 12 11 12 10 9 10 9 10 8 7 8 10 9 6 7 6 6 8 10 7 8 1 8 7 12
10 10 11 14 18 15 10 12 13 11 11 11 12 11 11 10 10 10 9 9 11 6 6 6 5 4 3 5 6 5 10 12 8 6 3 2 8 8
11 12 11 13 12 16 16 18 16 14 14 12 12 12 13 11 10 10 7 7 9 3 5 4 3 5 4 3 6 13 6 11 17 8 8 2 5 5
11 10 10 9 12 11 15 18 18 18 14 14 15 14 13 12 11 12 9 7 8 7 5 6 4 6 6 6 7 7 10 7 11 9 6 6 4 6
10 10 11 12 11 14 15 14 12 13 12 10 12 13 13 12 12 11 10 9 8 9 6 8 6 7 6 6 6 8 10 10 12 14 12 8 4 4
9 10 11 11 14 20 14 13 13 13 11 16 18 19 19 19 15 9 9 8 9 9 6 6 7 6 5 5 5 8 7 9 10 10 12 11 5 2
9 10 10 12 18 18 13 11 12 12 13 13 12 11 9 10 11 11 9 8 7 3 4 5 6 4 4 2 3 5 5 5 7 8 10 9 9 7
8 8 7 15 17 17 14 9 12 13 13 10 10 8 8 7 5 5 8 9 9 9 4 6 5 5 5 2 2 2 5 5 5 5 6 7 8 9
8 7 9 16 15 14 11 14 15 11 8 8 8 7 7 8 7 7 7 7 9 11 8 8 7 7 6 5 4 2 3 4 5 5 5 5 6 9
6 10 13 14 12 8 11 12 9 7 7 7 8 8 8 8 10 7 7 9 9 10 9 10 8 8 7 6 4 3 2 4 4 4 3 4 5 5
6 6 6 8 6 6 6 7 6 7 7 7 8 8 8 7 7 7 6 4 5 6 9 11 12 10 8 7 6 4 3 2 3 3 3 3 4 5
5 4 4 5 6 6 6 6 6 7 7 7 7 8 7 8 8 8 7 6 5 4 3 2 6 8 7 6 6 6 5 4 4 3 3 4 5 7
4 4 4 4 5 6 6 7 6 8 7 7 7 7 8 8 8 7 7 6 6 6 6 5 0 5 4 6 6 4 6 5 5 6 5 5 6 6
4 4 4 4 5 5 5 6 7 6 7 6 7 7 7 7 8 7 7 7 6 6 5 5 6 4 5 4 4 6 2 4 3 4 4 5 6 4
5 5 4 4 4 5 5 5 6 6 6 6 6 6 7 7 7 7 7 7 7 6 5 4 5 6 5 4 2 3 7 1 2 3 4 3 2 2
5 5 4 4 4 4 4 4 5 5 6 5 5 6 6 6 7 7 7 7 7 7 6 5 6 7 4 2 2 3 3 4 2 2 3 4 3 4
6 6 5 5 4 4 4 4 4 4 5 5 5 5 5 5 6 7 6 7 7 7 7 6 6 4 2 2 1 1 2 3 3 3 4 5 2 2
7 7 6 5 5 4 4 4 4 4 4 4 4 4 4 5 5 5 5 5 6 7 7 6 5 3 3 3 3 1 2 3 2 3 4 7 6 3
Wind_Direction
288 287 292 298 287 288 293 288 292 296 292 299 296 295 297 296 288 289 289 287 295 295 273 290 317 330 324 317 321 306 320 324 291 250 237 223 215 192
281 288 290 296 294 289 290 286 280 285 291 294 296 303 298 295 292 289 286 281 281 292 298 266 292 309 329 319 316 298 324 330 322 282 243 214 187 167
286 293 294 297 293 293 292 290 287 286 288 292 296 299 297 293 289 285 278 272 268 264 342 320 280 279 303 319 312 329 316 319 327 330 232 186 173 165
307 304 299 300 299 300 296 294 292 289 288 291 298 298 297 300 293 287 279 277 276 273 295 303 314 250 278 298 307 317 314 313 323 333 325 175 180 160
310 305 306 306 303 305 300 296 295 295 290 288 294 297 295 293 292 287 278 266 271 280 269 264 279 276 257 277 298 295 301 292 312 321 69 42 111 99
314 312 311 311 309 307 303 297 297 294 289 283 284 291 294 291 291 294 292 266 259 263 271 268 289 301 260 256 272 294 284 255 257 299 3 105 76 102
319 318 317 318 309 306 305 305 304 296 290 286 285 287 287 290 296 299 301 301 284 269 283 281 277 279 248 337 284 274 331 215 204 305 165 105 118 102
323 321 320 314 314 315 306 301 296 295 292 289 294 293 292 294 293 290 283 298 282 231 266 271 308 278 276 254 298 311 287 212 187 173 292 197 128 135
323 320 319 317 312 313 305 298 292 291 286 285 285 282 290 291 302 294 272 272 285 290 294 288 298 286 286 274 276 292 298 253 168 165 247 296 187 178
324 317 319 316 319 314 313 313 318 310 310 304 291 285 284 289 286 284 294 279 267 263 261 275 282 275 275 268 261 270 289 238 186 183 208 233 195 167
322 322 320 322 322 320 321 320 321 310 317 313 306 293 283 284 279 284 277 250 256 258 245 260 265 272 267 267 247 245 237 278 188 175 172 172 175 166
323 324 325 327 319 327 328 326 317 328 326 319 313 314 305 289 274 257 261 271 277 224 199 235 257 255 248 191 234 222 214 222 224 194 189 194 186 191
323 324 329 325 332 331 334 326 335 333 319 317 310 310 314 310 300 261 251 249 255 255 240 242 258 247 258 294 151 121 212 199 203 212 214 216 210 222
315 323 316 331 333 331 328 340 340 327 327 324 323 326 324 318 312 303 282 248 245 257 269 225 253 247 248 254 248 152 169 177 187 191 197 200 224 219
313 318 322 327 332 322 341 341 338 346 334 332 333 328 324 314 305 287 269 256 246 246 243 232 230 233 236 233 236 222 254 172 192 182 190 203 210 195
319 314 321 324 319 316 335 349 349 346 335 335 332 328 325 333 335 342 326 299 243 244 229 226 216 212 211 218 221 220 245 225 166 192 203 222 212 214
314 315 331 343 345 347 350 353 353 350 349 345 341 342 341 344 349 352 354 358 29 16 15 27 188 202 211 209 202 213 204 216 224 165 198 223 209 212
304 326 330 335 339 337 342 346 353 353 349 339 343 346 346 345 346 357 4 5 9 15 14 6 173 170 182 204 263 215 197 202 204 199 212 224 234 207
293 311 310 322 321 325 333 338 340 350 333 341 341 346 345 344 348 357 2 3 2 357 4 7 5 339 183 168 127 29 277 156 170 198 207 209 226 235
265 282 294 304 308 313 326 331 335 336 344 341 342 343 347 339 347 356 358 355 349 348 351 1 12 7 5 26 65 97 21 131 189 211 203 197 228 115
264 263 265 274 286 298 308 310 315 326 330 332 339 339 346 343 346 347 343 344 332 352 345 350 352 316 280 236 203 152 139 57 349 286 160 225 193 178
257 256 260 259 267 277 286 292 296 311 330 329 337 333 339 335 342 338 343 339 347 343 334 325 333 328 240 266 57 40 179 142 128 70 46 3 341 188
244 244 245 244 247 252 262 274 287 299 313 321 323 329 333 332 339 333 333 336 340 340 343 339 336 344 30 33 360 17 138 160 163 169 133 38 41 45